Regional Weather Roundup
Issued by NWS

Home | Current Version | Previous Version | Graphics & Text | Print | Product List | Glossary On
Versions: 1 2 3 4 5 6 7 8 9 10 11 12 13 14 15 16 17 18 19 20 21 22 23 24 25 26 27 28 29 30 31 32 33 34 35 36 37 38 39 40 41 42 43 44 45 46 47 48 49 50
232
ASUS44 KJAN 020210
RWRMS

MISSISSIPPI HOURLY WEATHER ROUNDUP
NATIONAL WEATHER SERVICE JACKSON MS
900 PM CDT MON SEP 01 2014

NOTE: "FAIR: INDICATES FEW OR NO CLOUDS BELOW 12,000 FEET WITH NO
SIGNIFICANT WEATHER AND/OR OBSTRUCTIONS TO VISIBILITY.

MSZ001>002-007>008-010>013-018>021-025>028-034>036-020300-
NORTHWEST MISSISSIPPI

CITY           SKY/WX    TMP DP  RH WIND       PRES   REMARKS
CLARKSDALE     FAIR      79  75  89 S10       29.98R
CLEVELAND      FAIR      80  74  84 S9        29.98R
GREENWOOD      MOCLDY    78  72  81 S6        30.00R
GREENVILLE     CLEAR     78  72  81 S7        29.97R
GRENADA        FAIR      81  70  69 S5        30.01R
OLIVE BRANCH   CLEAR     79  77  94 SE5       29.98S
OXFORD         FAIR      77  72  83 CALM      30.01S
TUNICA         CLEAR     77  73  88 SE5       29.97R
$$

MSZ003>006-009-014>017-022>024-029>033-037>039-020300-
NORTHEAST MISSISSIPPI

CITY           SKY/WX    TMP DP  RH WIND       PRES   REMARKS
BELMONT        FAIR      79  72  78 S3        30.03R
COLUMBUS AFB   CLEAR     79  71  75 S6        30.02R
CORINTH        FAIR      77  72  83 S5        30.01R
GOLDN TRIANGLE CLEAR     82  70  65 S6        30.03R
STARKVILLE     MOCLDY    77  72  83 CALM      30.02R
TUPELO         CLEAR     81  71  71 S5        30.01R
$$

MSZ040-058-020300-
CENTRAL MISSISSIPPI

CITY           SKY/WX    TMP DP  RH WIND       PRES   REMARKS
JACKSON INTL   CLOUDY    78  72  81 SE9       30.02F
JACKSON HAWKNS CLOUDY    79  73  82 SE14      30.02F
MERIDIAN KEY   CLOUDY    78  72  81 S6        30.05R
MERIDIAN NAS   MOCLDY    79  72  79 CALM      30.04R
RAYMOND        FAIR      77  72  83 SE6       30.02S
VICKSBURG      MOCLDY    78  72  81 S7        29.99S
$$

MSZ059>079-020300-
SOUTH MISSISSIPPI

CITY           SKY/WX    TMP DP  RH WIND       PRES   REMARKS
BROOKHAVEN     FAIR      77  77 100 CALM      30.06R
HATTIESBURG    CLOUDY    81  74  79 S3        30.06R
MCCOMB         LGT RAIN  77  75  93 E3        30.05R
NATCHEZ        CLOUDY    79  72  78 SE9       30.03S
PINE BELT      CLOUDY    79  72  78 S6        30.08R
$$

MSZ080>082-020300-
COASTAL MISSISSIPPI

CITY           SKY/WX    TMP DP  RH WIND       PRES   REMARKS
BAY ST LOUIS   MOCLDY   N/A N/A N/A S3        30.06R
BILOXI         CLOUDY    84  76  77 SW8       30.06R HX  93
PASCAGOULA     MOCLDY    76  75  97 CALM      30.06R
GULFPORT       LGT RAIN  82  73  74 SE13      30.06R
$$



USA.gov is the U.S. government's official web portal to all federal, state and local government web resources and services.